Atka, AK

11:08 AM HDT on April 23, 2018 (GMT -0900)
Atka

Weather History for PAAK - November, 2011

Change the Weather History Date:

Thursday, November 17, 2011

  Actual Average (PADK) Record (PADK)
Temperature  
Mean Temperature 46 °F -  
Max Temperature 48 °F 41 °F 55 °F (1997)
Min Temperature 44 °F 33 °F 19 °F (1962)
Degree Days  
Heating Degree Days 19    
Moisture  
Dew Point 38 °F    
Average Humidity 76    
Maximum Humidity 93    
Minimum Humidity 62    
Precipitation  
Precipitation 0.00 in - - ()
Sea Level Pressure  
Sea Level Pressure 29.71 in    
Wind  
Wind Speed 24 mph (SSW)    
Max Wind Speed 37 mph    
Max Gust Speed 48 mph    
Visibility 8 miles    
Events      
Averages and records for this station are not official NWS values.
T = Trace of Precipitation, MM = Missing Value Source: NWS Daily Summary

Daily Weather History Graph

Daily Weather History Graph

Search for Another Location

Airport or City:

Astronomy

Nov. 17, 2011 Rise Set
Actual Time 9:01 AM HST 5:41 PM HST
Civil Twilight 8:23 AM HST 6:19 PM HST
Nautical Twilight 7:41 AM HST 7:01 PM HST
Astronomical Twilight 7:01 AM HST 7:41 PM HST
Moon No Moon Rise 2:01 PM HST (11/17)
Length of Visible Light 9h 56m
Length of Day
8h 40m
Waning Gibbous, 58% of the Moon is Illuminated
Nov 17
Waning Gibbous
Nov 18
Last Quarter
Nov 24
New
Dec 1
First Quarter
Dec 10
Full

Hourly Weather History & Observations

Time (HST) Temp. Windchill Dew Point Humidity Pressure Visibility Wind Dir Wind Speed Gust Speed Precip Events Conditions
12:16 AM 46.4 °F 36.3 °F 44.6 °F 93% 29.58 in 3.0 mi South 36.8 mph 48.3 mph N/A   Overcast
12:36 AM 46.4 °F 36.5 °F 44.6 °F 93% 29.60 in 2.0 mi South 34.5 mph 46.0 mph N/A   Overcast
12:56 AM 46.4 °F 36.9 °F 44.6 °F 93% 29.60 in 2.5 mi SSE 32.2 mph 44.9 mph N/A   Overcast
1:16 AM 46.4 °F 37.7 °F 44.6 °F 93% 29.58 in 5.0 mi SSE 26.5 mph 36.8 mph N/A   Overcast
1:36 AM 46.4 °F 37.0 °F 44.6 °F 93% 29.57 in 5.0 mi SSE 31.1 mph 46.0 mph N/A   Overcast
1:56 AM 46.4 °F 37.5 °F 44.6 °F 93% 29.57 in 3.0 mi South 27.6 mph 42.6 mph N/A   Overcast
2:16 AM 46.4 °F 37.7 °F 44.6 °F 93% 29.56 in 2.5 mi SSE 26.5 mph 40.3 mph N/A   Overcast
2:36 AM 46.4 °F 37.2 °F 44.6 °F 93% 29.56 in 2.5 mi SSE 29.9 mph 42.6 mph N/A   Overcast
2:56 AM 46.4 °F 37.9 °F 44.6 °F 93% 29.55 in 5.0 mi South 25.3 mph 34.5 mph N/A   Overcast
3:16 AM 46.4 °F 38.3 °F 44.6 °F 93% 29.55 in 3.0 mi South 23.0 mph 31.1 mph N/A   Overcast
3:36 AM 46.4 °F 37.5 °F 44.6 °F 93% 29.55 in 3.0 mi South 27.6 mph 33.4 mph N/A   Overcast
3:56 AM 48.2 °F - 44.6 °F 87% 29.54 in 3.0 mi South 28.8 mph 33.4 mph N/A   Overcast
4:16 AM 46.4 °F 37.9 °F 44.6 °F 93% 29.55 in 3.0 mi South 25.3 mph 33.4 mph N/A   Overcast
4:36 AM 48.2 °F - 44.6 °F 87% 29.55 in 3.0 mi South 20.7 mph 32.2 mph N/A   Overcast
4:56 AM 48.2 °F - 44.6 °F 87% 29.56 in 3.0 mi South 26.5 mph 43.7 mph N/A   Overcast
5:16 AM 48.2 °F - 44.6 °F 87% 29.57 in 8.0 mi SSW 15.0 mph 28.8 mph N/A   Overcast
5:36 AM 46.4 °F 39.0 °F 44.6 °F 93% 29.57 in 5.0 mi SSW 19.6 mph 31.1 mph N/A   Overcast
5:56 AM 46.4 °F 38.3 °F 42.8 °F 87% 29.58 in 10.0 mi SSW 23.0 mph 36.8 mph N/A   Overcast
6:16 AM 46.4 °F 39.0 °F 41.0 °F 81% 29.59 in 10.0 mi SSW 19.6 mph 31.1 mph N/A   Overcast
6:36 AM 46.4 °F 38.5 °F 39.2 °F 76% 29.59 in 9.0 mi SSW 21.9 mph 35.7 mph N/A   Overcast
6:56 AM 46.4 °F 38.7 °F 37.4 °F 71% 29.60 in 10.0 mi SW 20.7 mph 33.4 mph N/A   Overcast
7:16 AM 44.6 °F 35.3 °F 37.4 °F 76% 29.61 in 10.0 mi SSW 26.5 mph 41.4 mph N/A   Overcast
7:36 AM 44.6 °F 36.1 °F 37.4 °F 76% 29.63 in 10.0 mi SW 21.9 mph 36.8 mph N/A   Mostly Cloudy
7:56 AM 44.6 °F 37.2 °F 35.6 °F 71% 29.64 in 10.0 mi SW 17.3 mph 27.6 mph N/A   Overcast
8:16 AM 44.6 °F 35.9 °F 33.8 °F 66% 29.66 in 10.0 mi SW 23.0 mph 28.8 mph N/A   Overcast
8:36 AM 44.6 °F 36.1 °F 33.8 °F 66% 29.67 in 10.0 mi SW 21.9 mph 32.2 mph N/A   Mostly Cloudy
8:56 AM 44.6 °F 35.9 °F 33.8 °F 66% 29.69 in 10.0 mi SW 23.0 mph 31.1 mph N/A   Mostly Cloudy
9:16 AM 44.6 °F 35.3 °F 33.8 °F 66% 29.70 in 10.0 mi SW 26.5 mph 35.7 mph N/A   Scattered Clouds
9:36 AM 44.6 °F 36.4 °F 33.8 °F 66% 29.72 in 10.0 mi SW 20.7 mph 27.6 mph N/A   Partly Cloudy
9:56 AM 44.6 °F 37.8 °F 33.8 °F 66% 29.73 in 10.0 mi SW 15.0 mph 25.3 mph N/A   Mostly Cloudy
10:16 AM 44.6 °F 38.1 °F 35.6 °F 71% 29.75 in 10.0 mi SSW 13.8 mph 23.0 mph N/A   Overcast
10:36 AM 44.6 °F 37.4 °F 35.6 °F 71% 29.76 in 10.0 mi SW 16.1 mph 25.3 mph N/A   Overcast
10:56 AM 44.6 °F 37.8 °F 33.8 °F 66% 29.77 in 10.0 mi SW 15.0 mph 25.3 mph N/A   Mostly Cloudy
11:16 AM 44.6 °F 38.8 °F 33.8 °F 66% 29.78 in 10.0 mi SW 11.5 mph - N/A   Mostly Cloudy
11:36 AM 46.4 °F 39.8 °F 33.8 °F 62% 29.79 in 10.0 mi SW 16.1 mph 19.6 mph N/A   Overcast
11:56 AM 46.4 °F 40.4 °F 33.8 °F 62% 29.80 in 10.0 mi SW 13.8 mph 20.7 mph N/A   Overcast
12:16 PM 46.4 °F 40.4 °F 35.6 °F 66% 29.81 in 10.0 mi SW 13.8 mph 23.0 mph N/A   Overcast
12:36 PM 44.6 °F 36.9 °F 35.6 °F 71% 29.83 in 10.0 mi SSW 18.4 mph 24.2 mph N/A   Overcast
12:56 PM 46.4 °F 39.8 °F 37.4 °F 71% 29.83 in 10.0 mi SSW 16.1 mph 24.2 mph N/A   Overcast
1:16 PM 46.4 °F 40.7 °F 35.6 °F 66% 29.84 in 10.0 mi SSW 12.7 mph 26.5 mph N/A   Overcast
1:36 PM 46.4 °F 40.1 °F 35.6 °F 66% 29.85 in 10.0 mi SSW 15.0 mph 26.5 mph N/A   Overcast
1:56 PM 46.4 °F 39.8 °F 35.6 °F 66% 29.86 in 10.0 mi SW 16.1 mph 23.0 mph N/A   Mostly Cloudy
2:16 PM 46.4 °F 39.5 °F 35.6 °F 66% 29.86 in 10.0 mi SW 17.3 mph 21.9 mph N/A   Scattered Clouds
2:36 PM 46.4 °F 40.7 °F 35.6 °F 66% 29.88 in 10.0 mi SW 12.7 mph - N/A   Partly Cloudy
2:56 PM 46.4 °F 40.4 °F 33.8 °F 62% 29.89 in 10.0 mi SW 13.8 mph 20.7 mph N/A   Clear
3:16 PM 44.6 °F 38.1 °F 33.8 °F 66% 29.90 in 10.0 mi SSW 13.8 mph 19.6 mph N/A   Partly Cloudy
3:36 PM 46.4 °F 40.4 °F 33.8 °F 62% 29.91 in 10.0 mi WSW 13.8 mph 23.0 mph N/A   Scattered Clouds
3:56 PM 46.4 °F 41.1 °F 33.8 °F 62% 29.92 in 10.0 mi WSW 11.5 mph 17.3 mph N/A   Mostly Cloudy
4:16 PM 46.4 °F 40.7 °F 33.8 °F 62% 29.92 in 10.0 mi SW 12.7 mph 19.6 mph N/A   Overcast
4:36 PM 46.4 °F 41.5 °F 33.8 °F 62% 29.93 in 10.0 mi WSW 10.4 mph 17.3 mph N/A   Overcast
4:56 PM 46.4 °F 42.4 °F 33.8 °F 62% 29.94 in 10.0 mi WSW 8.1 mph - N/A   Mostly Cloudy
5:16 PM 46.4 °F 40.7 °F 33.8 °F 62% 29.96 in 10.0 mi SW 12.7 mph - N/A   Overcast
5:36 PM 46.4 °F 41.1 °F 33.8 °F 62% 29.96 in 10.0 mi WSW 11.5 mph 18.4 mph N/A   Mostly Cloudy
5:56 PM 46.4 °F 41.1 °F 33.8 °F 62% 29.97 in 10.0 mi WSW 11.5 mph - N/A   Mostly Cloudy
6:36 PM 44.6 °F 39.7 °F 33.8 °F 66% 29.99 in 10.0 mi SW 9.2 mph - N/A   Scattered Clouds
6:56 PM 44.6 °F 40.7 °F 33.8 °F 66% 30.00 in 10.0 mi SW 6.9 mph - N/A   Partly Cloudy
7:16 PM 44.6 °F 40.2 °F 32.0 °F 61% 30.01 in 10.0 mi WSW 8.1 mph - N/A   Partly Cloudy
7:36 PM 44.6 °F 40.2 °F 32.0 °F 61% 30.02 in 10.0 mi SW 8.1 mph - N/A   Scattered Clouds
7:56 PM 44.6 °F 38.8 °F 32.0 °F 61% 30.04 in 10.0 mi SW 11.5 mph 17.3 mph N/A   Scattered Clouds
8:16 PM 44.6 °F 38.4 °F 33.8 °F 66% 30.04 in 10.0 mi SW 12.7 mph 18.4 mph N/A   Scattered Clouds
8:36 PM 44.6 °F 40.2 °F 33.8 °F 66% 30.05 in 10.0 mi WSW 8.1 mph - N/A   Scattered Clouds
8:56 PM 41.0 °F 36.4 °F 32.0 °F 70% 30.06 in 10.0 mi West 6.9 mph - N/A   Partly Cloudy
9:16 PM 39.2 °F 34.2 °F 30.2 °F 70% 30.07 in 10.0 mi SW 6.9 mph - N/A   Clear
9:36 PM 37.4 °F 32.1 °F 30.2 °F 75% 30.09 in 10.0 mi SW 6.9 mph - N/A   Clear
9:56 PM 41.0 °F 37.1 °F 30.2 °F 65% 30.11 in 10.0 mi WSW 5.8 mph - N/A   Clear
10:16 PM 39.2 °F 33.6 °F 30.2 °F 70% 30.11 in 10.0 mi SW 8.1 mph - N/A   Clear
10:36 PM 39.2 °F 34.2 °F 30.2 °F 70% 30.12 in 10.0 mi WSW 6.9 mph - N/A   Clear
10:56 PM 41.0 °F 36.4 °F 30.2 °F 65% 30.14 in 10.0 mi SW 6.9 mph - N/A   Clear
11:16 PM 37.4 °F 30.8 °F 30.2 °F 75% 30.15 in 10.0 mi WSW 9.2 mph - N/A   Clear
11:36 PM 37.4 °F 30.8 °F 30.2 °F 75% 30.15 in 10.0 mi WSW 9.2 mph - N/A   Clear
11:56 PM 39.2 °F 34.2 °F 30.2 °F 70% 30.16 in 10.0 mi WSW 6.9 mph - N/A   Clear